Tracking 20093 objects as of 14-Dec-2019
HD Live streaming from Space Station
objects crossing your sky now

COSMOS 2251 DEB

Track COSMOS 2251 DEB now!
10-day predictions


NORAD ID: 37500
Int'l Code: 1993-036BMD
Perigee: 414.8 km
Apogee: 666.9 km
Inclination: 74.0 °
Period: 95.3 minutes
Semi major axis: 6911 km
RCS: 0.0001 m2 (small)
Launch date: June 16, 1993
Source: Commonwealth of Independent States (former USSR) (CIS)
Launch site: PLESETSK MISSILE AND SPACE COMPLEX (PKMTR)

Note: This is SATELLITE DEBRIS
aabbcc
Your satellite tracking list
Your tracking list is empty




NASA's NSSDC Master Catalog

Two Line Element Set (TLE):
1 37500U 93036BMD 19347.35881029 +.00000798 +00000-0 +34879-4 0  9995
2 37500 073.9579 212.7705 0182355 220.6590 138.0872 15.10811183563562
Source of the keplerian elements: AFSPC